Location: Lavington
(51.2833°N, 1.9833°W)
Time: 10:51:30
(UTC+00:00)

STARLINK-1104 - Pass Details

Date: 01 June 2020
Orbit: 549 x 550 km, 53.0° (Epoch: 07 July)

Event Time Altitude Azimuth Distance (km) Brightness Sun altitude
Rises 21:32:41 0° 290° (WNW) 2,728 8.2 -9.2°
Reaches altitude 10° 21:35:00 10° 284° (WNW) 1,832 7.1 -9.4°
Maximum altitude 21:38:57 44° 212° (SSW) 773 4.2 -9.7°
Enters shadow 21:42:15 14° 143° (SE) 1,581 5.3 -10.0°
